Location: Alto Pass Reservoir
(37.5801°N, 89.3084°W)
Time: 13:47:01
(UTC+00:00)

NEOSSAT - Visible Passes

Search period start: 26 September 2022 00:00
Search period end: 06 October 2022 00:00
Orbit: 768 x 784 km, 98.4° (Epoch: 25 September)

Date Brightness Start Highest point End Pass type
(mag) Time Alt. Az. Time Alt. Az. Time Alt. Az.
26 Sep ? 01:12:50 10° N 01:17:53 54° WNW 01:22:54 10° SSW visible
26 Sep ? 10:49:28 10° ESE 10:53:02 19° ENE 10:56:37 10° NNE visible
27 Sep ? 00:39:10 10° NNE 00:44:20 71° ESE 00:49:30 10° S visible
27 Sep ? 02:20:27 10° NNW 02:22:55 14° WNW 02:25:22 10° W visible
28 Sep ? 00:05:59 10° NNE 00:10:38 33° E 00:15:16 10° SSE visible
28 Sep ? 01:45:23 10° NNW 01:49:41 27° WNW 01:53:59 10° SW visible
28 Sep ? 11:20:05 10° SE 11:24:45 38° ENE 11:29:28 10° N visible
29 Sep ? 01:11:14 10° N 01:16:18 56° WNW 01:21:20 10° SSW visible
29 Sep ? 10:47:57 10° ESE 10:51:28 19° ENE 10:54:58 10° NNE visible
30 Sep ? 00:37:34 10° NNE 00:42:45 69° ESE 00:47:53 10° S visible
30 Sep ? 02:18:45 10° NNW 02:21:20 14° WNW 02:23:55 10° W visible
01 Oct ? 00:04:26 10° NE 00:09:02 32° E 00:13:37 10° SSE visible
01 Oct ? 01:43:45 10° N 01:48:06 28° WNW 01:52:27 10° SW visible
01 Oct ? 11:18:31 10° SE 11:23:10 37° ENE 11:27:51 10° N visible
02 Oct ? 01:09:37 10° N 01:14:43 58° WNW 01:19:46 10° SSW visible
02 Oct ? 10:46:27 10° ESE 10:49:53 18° ENE 10:53:18 10° NNE visible
03 Oct ? 00:35:59 10° NNE 00:41:09 67° ESE 00:46:17 10° S visible
03 Oct ? 02:17:02 10° NNW 02:19:46 14° WNW 02:22:28 10° W visible
04 Oct ? 00:02:52 10° NE 00:07:26 31° E 00:11:58 10° SSE visible
04 Oct ? 01:42:07 10° N 01:46:32 29° WNW 01:50:55 10° SW visible
04 Oct ? 11:16:57 10° SE 11:21:35 36° ENE 11:26:14 10° N visible
05 Oct ? 01:08:01 10° N 01:13:07 60° WNW 01:18:12 10° SSW visible
05 Oct ? 10:44:56 10° ESE 10:48:17 18° ENE 10:51:40 10° NNE visible
